| time (UTC) | temp F | wind direction | speed knots | gust knots | rain 1hr in | rain 24hr in | rain mn in | humidity % | barometer mb |
| 20260509090103 | 52 | 167 | 0.0 | 0.0 | 0.00 | 0.00 | 0.00 | 3 | 1014.5 |
| 20260509084541 | 53 | 167 | 0.0 | 0.0 | 0.00 | 0.00 | 0.00 | 3 | 1014.6 |
| 20260509083036 | 53 | 167 | 0.0 | 0.0 | 0.00 | 0.00 | 0.00 | 3 | 1014.6 |
| 20260509081532 | 54 | 167 | 0.0 | 0.0 | 0.00 | 0.00 | 0.00 | 3 | 1014.6 |
| 20260509080027 | 54 | 167 | 0.0 | 0.0 | 0.00 | 0.00 | 0.00 | 3 | 1014.7 |
| 20260509074523 | 54 | 167 | 0.0 | 0.0 | 0.00 | 0.00 | 0.00 | 3 | 1014.7 |
| 20260509073020 | 55 | 167 | 0.0 | 0.0 | 0.00 | 0.00 | 0.00 | 3 | 1014.8 |
| 20260509071514 | 55 | 167 | 0.0 | 0.0 | 0.00 | 0.00 | 0.00 | 3 | 1014.9 |
| 20260509070010 | 55 | 167 | 0.0 | 0.0 | 0.00 | 0.00 | 0.00 | 3 | 1014.9 |
| 20260509064557 | 56 | 167 | 0.0 | 0.0 | 0.00 | 0.00 | 0.00 | 3 | 1015.0 |
| 20260509063044 | 57 | 167 | 0.0 | 0.0 | 0.00 | 0.00 | 0.00 | 3 | 1015.0 |
| 20260509061522 | 57 | 167 | 0.0 | 0.0 | 0.00 | 0.00 | 0.00 | 3 | 1015.1 |
| 20260509060018 | 57 | 135 | 0.0 | 0.0 | 0.00 | 0.00 | 0.00 | 3 | 1015.1 |
| 20260509054611 | 57 | 219 | 0.0 | 0.0 | 0.00 | 0.00 | 0.00 | 3 | 1015.1 |
| 20260509053059 | 58 | 219 | 0.0 | 0.0 | 0.00 | 0.00 | 0.00 | 3 | 1015.3 |
| 20260509051531 | 58 | 219 | 0.0 | 0.0 | 0.00 | 0.00 | 0.00 | 3 | 1015.1 |
| 20260509050029 | 58 | 219 | 0.0 | 0.0 | 0.00 | 0.00 | 0.00 | 3 | 1015.1 |
| 20260509044506 | 58 | 219 | 0.0 | 0.0 | 0.00 | 0.00 | 0.00 | 3 | 1014.9 |
| 20260509043002 | 59 | 219 | 0.0 | 0.0 | 0.00 | 0.00 | 0.00 | 3 | 1014.8 |
| 20260509041539 | 59 | 219 | 0.0 | 0.0 | 0.00 | 0.00 | 0.00 | 3 | 1014.7 |
| 20260509040041 | 60 | 219 | 0.0 | 0.0 | 0.00 | 0.00 | 0.00 | 9 | 1014.7 |
| 20260509034513 | 60 | 169 | 0.0 | 0.0 | 0.00 | 0.00 | 0.00 | 23 | 1014.6 |
| 20260509033009 | 60 | 214 | 0.0 | 0.0 | 0.00 | 0.00 | 0.00 | 35 | 1014.5 |
| 20260509031604 | 61 | 219 | 0.0 | 0.0 | 0.00 | 0.00 | 0.00 | 48 | 1014.3 |
| 20260509030043 | 62 | 195 | 0.0 | 0.0 | 0.00 | 0.00 | 0.00 | 56 | 1014.1 |
| 20260509024525 | 62 | 193 | 0.0 | 0.0 | 0.00 | 0.00 | 0.00 | 61 | 1014.2 |
| 20260509023024 | 63 | 200 | 0.0 | 0.0 | 0.00 | 0.00 | 0.00 | 63 | 1014.1 |
| 20260509021518 | 64 | 229 | 0.0 | 1.7 | 0.00 | 0.00 | 0.00 | 63 | 1014.1 |
| 20260509020014 | 65 | 217 | 0.0 | 1.7 | 0.00 | 0.00 | 0.00 | 63 | 1014.0 |
| 20260509014517 | 65 | 218 | 0.0 | 3.5 | 0.00 | 0.00 | 0.00 | 63 | 1014.1 |
| 20260509013005 | 66 | 203 | 0.0 | 4.3 | 0.00 | 0.00 | 0.00 | 63 | 1014.1 |
| 20260509011559 | 66 | 266 | 0.9 | 5.2 | 0.00 | 0.00 | 0.00 | 63 | 1014.3 |
| 20260509010059 | 67 | 141 | 0.0 | 6.1 | 0.00 | 0.00 | 0.00 | 62 | 1014.4 |
| 20260509004533 | 68 | 139 | 0.0 | 8.7 | 0.00 | 0.00 | 0.00 | 62 | 1014.3 |
| 20260509003027 | 68 | 219 | 0.0 | 5.2 | 0.00 | 0.00 | 0.00 | 62 | 1014.5 |
| 20260509001505 | 68 | 223 | 0.0 | 7.8 | 0.00 | 0.00 | 0.00 | 62 | 1014.5 |
| 20260509000057 | 69 | 236 | 1.7 | 10.4 | 0.00 | 0.00 | 0.00 | 61 | 1014.6 |
| 20260508234535 | 70 | 218 | 1.7 | 8.7 | 0.00 | 0.00 | 0.00 | 60 | 1014.8 |
| 20260508233031 | 70 | 193 | 0.9 | 7.0 | 0.00 | 0.00 | 0.00 | 61 | 1014.8 |
| 20260508231509 | 71 | 248 | 0.0 | 7.8 | 0.00 | 0.00 | 0.00 | 60 | 1015.1 |
| 20260508230005 | 71 | 245 | 0.0 | 8.7 | 0.00 | 0.00 | 0.00 | 60 | 1015.3 |
| 20260508224550 | 71 | 166 | 0.0 | 7.0 | 0.00 | 0.00 | 0.00 | 59 | 1015.5 |
| 20260508223043 | 71 | 203 | 0.0 | 7.0 | 0.00 | 0.00 | 0.00 | 60 | 1015.8 |
| 20260508221538 | 71 | 224 | 0.9 | 7.8 | 0.00 | 0.00 | 0.00 | 60 | 1016.0 |
| 20260508220106 | 71 | 187 | 0.0 | 8.7 | 0.00 | 0.00 | 0.00 | 60 | 1016.1 |
| 20260508214530 | 71 | 217 | 0.9 | 9.6 | 0.00 | 0.00 | 0.00 | 60 | 1016.2 |
| 20260508213026 | 72 | 248 | 0.0 | 8.7 | 0.00 | 0.00 | 0.00 | 60 | 1016.3 |
| 20260508211524 | 72 | 200 | 0.9 | 8.7 | 0.00 | 0.00 | 0.00 | 59 | 1016.4 |
| 20260508210018 | 72 | 233 | 0.9 | 9.6 | 0.00 | 0.00 | 0.00 | 59 | 1016.6 |
| 20260508204604 | 72 | 198 | 0.0 | 4.3 | 0.00 | 0.00 | 0.00 | 59 | 1016.5 |
| 20260508203049 | 72 | 214 | 0.0 | 3.5 | 0.00 | 0.00 | 0.00 | 59 | 1016.7 |
| 20260508201533 | 71 | 197 | 0.0 | 3.5 | 0.00 | 0.00 | 0.00 | 59 | 1017.0 |
| 20260508200024 | 70 | 146 | 0.0 | 1.7 | 0.00 | 0.00 | 0.00 | 59 | 1017.2 |
| 20260508194502 | 69 | 195 | 0.0 | 3.5 | 0.00 | 0.00 | 0.00 | 60 | 1017.3 |
| 20260508193106 | 69 | 202 | 0.0 | 0.9 | 0.00 | 0.00 | 0.00 | 59 | 1017.5 |
| 20260508191554 | 68 | 226 | 0.0 | 1.7 | 0.00 | 0.00 | 0.00 | 59 | 1017.6 |
| 20260508190042 | 68 | 200 | 0.0 | 2.6 | 0.00 | 0.00 | 0.00 | 59 | 1017.7 |
| 20260508184542 | 68 | 195 | 0.0 | 0.0 | 0.00 | 0.00 | 0.00 | 59 | 1017.7 |
| 20260508183028 | 67 | 239 | 0.0 | 0.0 | 0.00 | 0.00 | 0.00 | 59 | 1017.9 |
| 20260508181532 | 68 | 191 | 0.0 | 3.5 | 0.00 | 0.00 | 0.00 | 58 | 1017.9 |
| 20260508180020 | 67 | 134 | 0.0 | 0.0 | 0.00 | 0.00 | 0.00 | 58 | 1018.1 |
| 20260508174527 | 66 | 224 | 0.0 | 0.0 | 0.00 | 0.00 | 0.00 | 58 | 1018.1 |
| 20260508173009 | 65 | 134 | 0.0 | 2.6 | 0.00 | 0.00 | 0.00 | 57 | 1018.0 |
| 20260508171505 | 65 | 260 | 0.0 | 0.0 | 0.00 | 0.00 | 0.00 | 53 | 1018.0 |
| 20260508170044 | 64 | 180 | 0.0 | 0.0 | 0.00 | 0.00 | 0.00 | 48 | 1018.0 |
| 20260508164540 | 65 | 233 | 0.0 | 0.0 | 0.00 | 0.00 | 0.00 | 12 | 1018.0 |
| 20260508163029 | 65 | 122 | 0.0 | 0.0 | 0.00 | 0.00 | 0.00 | 3 | 1018.0 |
| 20260508161520 | 61 | 211 | 0.0 | 0.0 | 0.00 | 0.00 | 0.00 | 3 | 1018.1 |
| 20260508160052 | 58 | 129 | 0.0 | 0.0 | 0.00 | 0.00 | 0.00 | 3 | 1017.8 |
| 20260508154547 | 56 | 121 | 0.0 | 0.0 | 0.00 | 0.00 | 0.00 | 3 | 1017.9 |
| 20260508153025 | 56 | 198 | 0.0 | 0.0 | 0.00 | 0.00 | 0.00 | 3 | 1018.0 |
| 20260508151521 | 55 | 205 | 0.0 | 0.0 | 0.00 | 0.00 | 0.00 | 3 | 1017.9 |
| 20260508150059 | 55 | 173 | 0.0 | 0.0 | 0.00 | 0.00 | 0.00 | 3 | 1017.8 |
| 20260508144600 | 54 | 222 | 0.0 | 0.0 | 0.00 | 0.00 | 0.00 | 3 | 1017.7 |
| 20260508143035 | 54 | 181 | 0.0 | 0.0 | 0.00 | 0.00 | 0.00 | 3 | 1017.6 |
| 20260508141529 | 53 | 181 | 0.0 | 0.0 | 0.00 | 0.00 | 0.00 | 3 | 1017.5 |
| 20260508140015 | 0 | 0.0 | 0.0 | 0.00 | 0.00 | 0.00 | 1017.5 | ||
| 20260508134502 | 0 | 0.0 | 0.0 | 0.00 | 0.00 | 0.00 | 1017.4 | ||
| 20260508133041 | 0 | 0.0 | 0.0 | 0.00 | 0.00 | 0.00 | 1017.3 | ||
| 20260508131536 | 0 | 0.0 | 0.0 | 0.00 | 0.00 | 0.00 | 1017.3 | ||
| 20260508130015 | 0 | 0.0 | 0.0 | 0.00 | 0.00 | 0.00 | 1017.1 | ||
| 20260508124511 | 0 | 0.0 | 0.0 | 0.00 | 0.00 | 0.00 | 1017.0 | ||
| 20260508123103 | 0 | 0.0 | 0.0 | 0.00 | 0.00 | 0.00 | 1017.0 | ||
| 20260508121545 | 0 | 0.0 | 0.0 | 0.00 | 0.00 | 0.00 | 1017.1 | ||
| 20260508120023 | 53 | 354 | 0.0 | 0.0 | 0.00 | 0.00 | 0.00 | 3 | 1016.9 |
| 20260508114518 | 54 | 354 | 0.0 | 0.0 | 0.00 | 0.00 | 0.00 | 3 | 1017.1 |
| 20260508113103 | 54 | 354 | 0.0 | 0.0 | 0.00 | 0.00 | 0.00 | 3 | 1017.1 |
| 20260508111552 | 54 | 307 | 0.0 | 0.0 | 0.00 | 0.00 | 0.00 | 3 | 1017.2 |
| 20260508110034 | 54 | 115 | 0.0 | 0.0 | 0.00 | 0.00 | 0.00 | 3 | 1017.4 |
| 20260508104530 | 54 | 162 | 0.0 | 0.0 | 0.00 | 0.00 | 0.00 | 3 | 1017.3 |
| 20260508103033 | 54 | 141 | 0.0 | 0.0 | 0.00 | 0.00 | 0.00 | 3 | 1017.2 |
| 20260508101522 | 54 | 223 | 0.0 | 0.0 | 0.00 | 0.00 | 0.00 | 3 | 1017.1 |
| 20260508100019 | 55 | 225 | 0.0 | 0.0 | 0.00 | 0.00 | 0.00 | 3 | 1017.2 |
| 20260508094512 | 55 | 163 | 0.0 | 0.0 | 0.00 | 0.00 | 0.00 | 3 | 1017.0 |
| 20260508093008 | 55 | 232 | 0.0 | 0.0 | 0.00 | 0.00 | 0.00 | 3 | 1016.9 |
| 20260508091505 | 55 | 233 | 0.0 | 2.6 | 0.00 | 0.00 | 0.00 | 3 | 1017.1 |